sat.trackr.live / text

‹ back to catalog

STARLINK-31626

NORAD 59392 · 2024-062U

PAYLOAD ACTIVE UNKNOWN

§ Identity

Operator
Country
US
Launch date
2024-04-02
Launch site
AFWTR
Launch vehicle
Mass (kg)
RCS (m²)

Purposes: comms

External: N2YO · Heavens-Above · Gunter

§ Orbital elements

Epoch: 2026-05-25T01:05:10.102848Z

Period
94.11 min
Inclination
53.1606°
Eccentricity
0.0001498
Mean motion
15.30181800 rev/d
Perigee alt
474.2 km
Apogee alt
476.3 km
Semi-major
6,853.4 km
B*
1.3755e-4
RAAN
260.8649°
Arg perigee
98.4027°
Mean anomaly
261.7144°
Rev number
12,136

§ Raw data

STARLINK-316261 59392U 24062U   26145.04525582  .00003715  00000+0  13755-3 0  99902 59392  53.1606 260.8649 0001498  98.4027 261.7144 15.30181800121363

JSON: /api/v1/satellites/59392 · /tle

For live sub-satellite position, see the globe view (requires WebGL).

§ Visibility from observer

Set your observer location to see the next 7 days of passes ≥ 10°. The values pass through the URL so the page stays shareable.

No JS? Fill the form by hand. The geolocation button needs JavaScript.